Location: Goudex
(43.3760°N, 0.9543°E)
Time: 16:27:51
(UTC+00:00)

SJ 16-02 - Pass Details

Date: 20 November 2019
Orbit: 606 x 616 km, 75.0° (Epoch: 14 December)

Event Time Altitude Azimuth Distance (km) Brightness Sun altitude
Exits shadow 04:25:40 12° 10° (N) 1,864 3.9 -27.0°
Drops below altitude 10° 04:25:55 10° 11° (N) 1,966 4.0 -26.9°
Sets 04:28:12 0° 16° (NNE) 2,874 4.9 -26.5°
